This is the latest recevied weather packets stored in our database for station/object WP3XM. If no packets are shown the sender has not sent any weather packets the latest 10 day(s).
| Time | Temp. | Humidity | Pressure | Rain* | Wind** | Luminosity | Snow |
|---|---|---|---|---|---|---|---|
| 1778179224 | 29.44° C | 70% | 1016.9 hPa | 0 mm | - | 404 W/m² | - |
| 1778178919 | 29.44° C | 72% | 1016.9 hPa | 0 mm | - | 925 W/m² | - |
| 1778178617 | 29.44° C | 73% | 1016.9 hPa | 0 mm | - | 865 W/m² | - |
| 1778178313 | 29.44° C | 73% | 1017.1 hPa | 0 mm | - | 864 W/m² | - |
| 1778178009 | 29.44° C | 71% | 1017 hPa | 0 mm | - | 954 W/m² | - |
| 1778177706 | 29.44° C | 69% | 1017.1 hPa | 0 mm | - | 913 W/m² | - |
| 1778177402 | 29.44° C | 71% | 1017.2 hPa | 0 mm | - | 866 W/m² | - |
| 1778177099 | 29.44° C | 72% | 1017.2 hPa | 0 mm | - | 900 W/m² | - |
| 1778176795 | 29.44° C | 73% | 1017.4 hPa | 0 mm | - | 925 W/m² | - |
| 1778176492 | 30° C | 72% | 1017.5 hPa | 0 mm | - | 312 W/m² | - |
| 1778176189 | 30° C | 71% | 1017.5 hPa | 0 mm | - | 959 W/m² | - |
| 1778175886 | 29.44° C | 72% | 1017.6 hPa | 0 mm | - | 1049 W/m² | - |
| 1778175584 | 29.44° C | 71% | 1017.5 hPa | 0 mm | - | 947 W/m² | - |
| 1778175281 | 29.44° C | 73% | 1017.6 hPa | 0 mm | - | 990 W/m² | - |
| 1778174978 | 29.44° C | 72% | 1017.6 hPa | 0 mm | - | 984 W/m² | - |
| 1778174674 | 29.44° C | 72% | 1018 hPa | 0 mm | - | 964 W/m² | - |
| 1778174370 | 29.44° C | 75% | 1017.8 hPa | 0 mm | - | 972 W/m² | - |
| 1778174067 | 29.44° C | 74% | 1017.9 hPa | 0 mm | - | 1012 W/m² | - |
| 1778173764 | 28.89° C | 72% | 1018 hPa | 0 mm | - | 988 W/m² | - |
| 1778173460 | 29.44° C | 73% | 1018.3 hPa | 0 mm | - | 814 W/m² | - |
| 1778173157 | 29.44° C | 73% | 1018.1 hPa | 0 mm | - | 580 W/m² | - |
| 1778172853 | 28.89° C | 73% | 1018.4 hPa | 0 mm | - | 1027 W/m² | - |
| 1778172548 | 28.89° C | 73% | 1018.3 hPa | 0 mm | - | 1039 W/m² | - |
| 1778172246 | 28.89° C | 72% | 1018.4 hPa | 0 mm | - | 1047 W/m² | - |
| 1778171943 | 28.89° C | 75% | 1018.6 hPa | 0 mm | - | 1048 W/m² | - |
* Rain latest hour (hover to see other rain measurements)
** Current wind speed in m/s (hover to see current wind gust speed)